Location: Gunnedah
(30.9923°S, 150.2369°E)
Time: 05:59:01
(UTC+10:00)

Hubble Space Telescope - Visible Passes

Search period start: 22 August 2019 00:00
Search period end: 01 September 2019 00:00
Orbit: 536 x 540 km, 28.5° (Epoch: 21 August)

Date Brightness Start Highest point End Pass type
(mag) Time Alt. Az. Time Alt. Az. Time Alt. Az.
22 Aug 1.1 05:01:24 40° NW 05:02:36 57° N 05:06:43 10° E visible
23 Aug 1.0 04:51:28 53° NW 04:52:02 60° N 04:56:11 10° E visible
24 Aug 0.9 04:41:31 62° N 04:41:31 62° N 04:45:38 10° E visible
25 Aug 1.3 04:31:33 54° NE 04:31:33 54° NE 04:35:05 10° E visible
26 Aug 1.9 04:21:36 41° NE 04:21:36 41° NE 04:24:32 10° ENE visible
27 Aug 2.5 04:11:40 30° ENE 04:11:40 30° ENE 04:13:57 10° ENE visible
27 Aug 2.1 05:47:09 10° W 05:50:47 29° NNW 05:54:25 10° NE visible
28 Aug 3.0 04:01:46 22° ENE 04:01:46 22° ENE 04:03:21 10° ENE visible
28 Aug 2.3 05:37:06 12° WNW 05:40:11 24° NNW 05:43:34 10° NE visible
29 Aug 3.5 03:51:54 15° ENE 03:51:54 15° ENE 03:52:44 10° ENE visible
29 Aug 2.5 05:27:15 13° WNW 05:29:34 20° NNW 05:32:37 10° NNE visible
30 Aug 2.7 05:17:27 14° NW 05:18:55 16° NNW 05:21:30 10° NNE visible
31 Aug 2.9 05:07:42 12° NW 05:08:17 13° NNW 05:10:06 10° N visible
